Location: Boullarre
(49.1305°N, 3.0047°E)
Time: 22:02:35
(UTC+00:00)

ISS - Pass Details

Date: 26 September 2024
Orbit: 411 x 423 km, 51.6° (Epoch: 14 October)

Event Time Altitude Azimuth Distance (km) Brightness Sun altitude
Rises 20:17:20 0° 285° (WNW) 2,371 1.3 -26.0°
Reaches altitude 10° 20:19:53 10° 265° (W) 1,507 -0.3 -26.4°
Enters shadow 20:20:56 15° 249° (WSW) 1,252 -1.0 -26.5°
